Torna al catalogo

THOR ABLESTAR DEB

AttivoLEO
NORAD 19293·DEBRIS·🇺🇸 United States

Lanciato Jun 29, 1961 da Cape Canaveral Space Force Station

Loading…

Prossimi Passaggi (prossime 24 ore)

TLE

In scadenzaSource: Space-Track

Epoca: Sep 11, 2026, 21:25 UTC

1 19293U 61015MA  26254.89282021  .00000598  00000-0  13744-2 0  9991
2 19293  66.9852  67.3381 0334750 143.6361   5.5582 13.12749002839112

Traccia THOR ABLESTAR DEB in tempo reale con AllMySat

Download on the App Store